Weather History for 94926 - December, 2013

Change the Weather History Date:

Monday, December 30, 2013

  Actual Average Record
Temperature  
Mean Temperature 70 °F -  
Max Temperature 86 °F 82 °F - ()
Min Temperature 55 °F 55 °F - ()
Cooling Degree Days 6    
Growing Degree Days 20 (Base 50)    
Moisture  
Dew Point 45 °F    
Average Humidity 47    
Maximum Humidity 82    
Minimum Humidity 11    
Precipitation  
Precipitation 0.00 in 0.07 in - ()
Sea Level Pressure  
Sea Level Pressure 29.91 in    
Wind  
Wind Speed 9 mph ()    
Max Wind Speed 20 mph    
Max Gust Speed -    
Visibility 6.2 miles    
Events      
T = Trace of Precipitation, MM = Missing Value Source: Averaged Metar Reports

Daily Weather History Graph

Daily Weather History Graph

Search for Another Location

Airport or City:

Trip Planner

Search our weather history database for the weather conditions in past years. The results will help you decide how hot, cold, wet, or windy it might be!

Date:

Astronomy

Dec. 30, 2013 Rise Set
Actual Time 5:50 AM AEDT 8:20 PM AEDT
Civil Twilight 5:20 AM AEDT 8:50 PM AEDT
Nautical Twilight 4:43 AM AEDT 9:27 PM AEDT
Astronomical Twilight 4:02 AM AEDT 10:08 PM AEDT
Moon 3:28 AM AEDT (12/30) 5:50 PM AEDT (12/30)
Length of Visible Light 15h 30m
Length of Day
14h 30m
Waning Crescent, 9% of the Moon is Illuminated
Dec 30
Waning Crescent
Jan 1
New
Jan 8
First Quarter
Jan 16
Full
Jan 24
Last Quarter

Hourly Weather History & Observations

Time (AEDT) Temp. Dew Point Humidity Pressure Visibility Wind Dir Wind Speed Gust Speed Precip Events Conditions
12:00 AM 57 °F 49 °F 65% 29.96 in - ENE 9.2 mph - -  
12:00 AM 57.2 °F 48.2 °F 72% 30.01 in 6.2 mi ENE 9.2 mph - N/A   Scattered Clouds
12:30 AM 57.2 °F 48.2 °F 72% 30.01 in 6.2 mi ENE 8.1 mph - N/A   Mostly Cloudy
1:00 AM 57.2 °F 46.4 °F 67% 30.01 in - East 9.2 mph - N/A   Mostly Cloudy
1:30 AM 57.2 °F 48.2 °F 72% 30.01 in - East 6.9 mph - N/A   Overcast
2:00 AM 57 °F 48 °F 65% 29.95 in - East 8.1 mph - -  
2:00 AM 57.2 °F 48.2 °F 72% 30.01 in - East 8.1 mph - N/A   Overcast
2:30 AM 57.2 °F 48.2 °F 72% 29.98 in - East 10.4 mph - N/A   Overcast
3:00 AM 57 °F 47 °F 60% 29.93 in - East 8.1 mph - -   Overcast
3:00 AM 57.2 °F 46.4 °F 67% 29.98 in - East 8.1 mph - N/A   Overcast
3:30 AM 57.2 °F 46.4 °F 67% 29.98 in 6.2 mi East 11.5 mph - N/A   Overcast
4:00 AM 57.2 °F 44.6 °F 63% 29.98 in 6.2 mi East 10.4 mph - N/A   Overcast
4:30 AM 57.2 °F 46.4 °F 67% 29.98 in 6.2 mi ENE 11.5 mph - N/A   Mostly Cloudy
5:00 AM 57 °F 45 °F 54% 29.93 in - ENE 12.7 mph - -  
5:00 AM 57.2 °F 44.6 °F 63% 29.98 in 6.2 mi ENE 12.7 mph - N/A   Mostly Cloudy
5:30 AM 57.2 °F 44.6 °F 63% 29.98 in 6.2 mi East 9.2 mph - N/A   Mostly Cloudy
6:00 AM 56 °F 45 °F 57% 29.94 in - East 8.1 mph - -   Overcast
6:00 AM 57.2 °F 44.6 °F 63% 29.98 in 6.2 mi East 8.1 mph - N/A   Mostly Cloudy
6:30 AM 57.2 °F 46.4 °F 67% 29.98 in 6.2 mi East 8.1 mph - N/A   Mostly Cloudy
7:00 AM 57.2 °F 44.6 °F 63% 29.98 in 6.2 mi East 8.1 mph - N/A   Mostly Cloudy
7:30 AM 57.2 °F 46.4 °F 67% 30.01 in 6.2 mi ENE 8.1 mph - N/A   Mostly Cloudy
8:00 AM 59 °F 46 °F 52% 29.95 in - East 6.9 mph - -  
8:00 AM 59.0 °F 46.4 °F 63% 30.01 in 6.2 mi East 6.9 mph - N/A   Scattered Clouds
8:30 AM 60.8 °F 44.6 °F 55% 30.01 in 6.2 mi ENE 5.8 mph - N/A   Scattered Clouds
9:00 AM 63 °F 46 °F 44% 29.94 in - NE 5.8 mph - -  
9:00 AM 62.6 °F 46.4 °F 55% 29.98 in 6.2 mi NE 5.8 mph - N/A   Partly Cloudy
9:30 AM 64.4 °F 46.4 °F 52% 29.98 in 6.2 mi NW 5.8 mph - N/A   Partly Cloudy
10:00 AM 66.2 °F 46.4 °F 49% 29.98 in 6.2 mi North 5.8 mph - N/A   Partly Cloudy
10:30 AM 68.0 °F 48.2 °F 49% 29.98 in - NW 6.9 mph - N/A   Clear
11:00 AM 69 °F 48 °F 36% 29.90 in - North 5.8 mph - -  
11:00 AM 69.8 °F 48.2 °F 46% 29.95 in - North 5.8 mph - N/A   Clear
11:30 AM 71.6 °F 46.4 °F 41% 29.95 in - WSW 8.1 mph - N/A   Clear
12:00 PM 72 °F 45 °F 27% 29.88 in - NNW 6.9 mph - -  
12:00 PM 71.6 °F 44.6 °F 38% 29.92 in - NNW 6.9 mph - N/A   Clear
12:30 PM 75.2 °F 46.4 °F 36% 29.92 in 6.2 mi WSW 5.8 mph - N/A   Partly Cloudy
1:00 PM 75.2 °F 42.8 °F 31% 29.92 in - North 8.1 mph - N/A   Clear
1:30 PM 77.0 °F 42.8 °F 29% 29.89 in - NW 8.1 mph - N/A   Clear
2:00 PM 79 °F 42 °F 16% 29.83 in - NW 13.8 mph - -  
2:00 PM 78.8 °F 41.0 °F 26% 29.89 in - NW 13.8 mph - N/A   Clear
2:30 PM 78.8 °F 39.2 °F 24% 29.86 in - WNW 6.9 mph - N/A   Clear
3:00 PM 83 °F 43 °F 15% 29.79 in - NNW 10.4 mph - -  
3:00 PM 84.2 °F 42.8 °F 23% 29.83 in - NNW 10.4 mph - N/A   Clear
3:30 PM 84.2 °F 41.0 °F 22% 29.83 in - NNW 13.8 mph - N/A   Clear
4:00 PM 86.0 °F 37.4 °F 18% 29.83 in - WNW 19.6 mph - N/A   Clear
4:30 PM 84.2 °F 35.6 °F 18% 29.83 in - WNW 18.4 mph - N/A   Clear
5:00 PM 84 °F 38 °F 11% 29.76 in - West 19.6 mph - -  
5:00 PM 84.2 °F 37.4 °F 19% 29.80 in - West 19.6 mph - N/A   Clear
5:22 PM 84.2 °F 37.4 °F 19% 29.80 in - West 17.3 mph - N/A   Clear
5:30 PM 82.4 °F 37.4 °F 20% 29.80 in - WNW 18.4 mph - N/A   Clear
6:00 PM 84 °F 38 °F 11% 29.76 in - West 17.3 mph - -  
6:00 PM 84.2 °F 39.2 °F 20% 29.80 in - West 17.3 mph - N/A   Clear
6:30 PM 82.4 °F 37.4 °F 20% 29.83 in - West 17.3 mph - N/A   Clear
7:00 PM 82.4 °F 35.6 °F 19% 29.83 in - West 13.8 mph - N/A   Clear
7:30 PM 80.6 °F 32.0 °F 17% 29.83 in - WNW 15.0 mph - N/A   Clear
8:00 PM 78 °F 35 °F 12% 29.79 in - West 10.4 mph - -  
8:00 PM 78.8 °F 35.6 °F 21% 29.83 in - West 10.4 mph - N/A   Clear
8:27 PM 69.8 °F 51.8 °F 53% 29.86 in - East 15.0 mph - N/A   Clear
8:30 PM 68.0 °F 51.8 °F 56% 29.86 in - East 15.0 mph - N/A   Clear
9:00 PM 65 °F 53 °F 55% 29.84 in - SE 5.8 mph - -  
9:00 PM 64.4 °F 51.8 °F 64% 29.89 in 6.2 mi SE 5.8 mph - N/A   Unknown
9:30 PM 62.6 °F 51.8 °F 68% 29.92 in 6.2 mi SE 9.2 mph - N/A   Unknown
10:00 PM 60.8 °F 51.8 °F 72% 29.92 in 6.2 mi ESE 9.2 mph - N/A   Unknown
10:30 PM 59.0 °F 51.8 °F 77% 29.95 in 6.2 mi ESE 9.2 mph - N/A   Unknown
11:00 PM 59 °F 52 °F 71% 29.89 in - ESE 6.9 mph - -  
11:00 PM 59.0 °F 51.8 °F 77% 29.95 in 6.2 mi ESE 6.9 mph - N/A   Unknown
11:30 PM 57.2 °F 51.8 °F 82% 29.95 in 6.2 mi SE 5.8 mph - N/A   Unknown